FENGYUN 1C DEB

Satellite information

Favourite Embed

Satellite Type and Status

DEBRISIN ORBIT

Key statistics

Satellite FENGYUN 1C DEB at a glance.

Uptime

9495

Days in orbit

Revolutions

≈ 14.3

Per day

Orbit

SSO

Sun Synchronous Orbit

Inclination

99.1

Latest

Satellite identification and parameters

Extended collection of information and parameters for FENGYUN 1C DEB.

Object identification

Identified? True

Debris? True

Object name: FENGYUN 1C DEB

International designator: 1999-025CWP

Object number (NORAD): 32241

Object ID (CCSDS): 32241

Country: PEOPLES REPUBLIC OF CHINA (PRC)

Current information (Y/N): Y

RCS size: SMALL

Orbital parameters

Period: 100.929 minutes

Inclination: 99.0916 deg

SMA: 7180.743 km

Apoapsis: 911.491 km

Periapsis: 693.726 km

RAAN: 144.3308 deg

Eccentricy: 0.0151631

Argument of periapsis: 146.5138 deg

Mean anomaly: 214.574 deg

Mean motion: 14.26752509 rev/day

Mean motion (dot): 0.0000577 rev/day2

B* drag term: 0.0021262 1/REarth

Two-line elements (TLE)

Creation date: May 4, 2025, 2:26 a.m.

Reference frame: TEME

Reference center: EARTH

Epoch: May 3, 2025, 6:50 p.m. UTC

TLE line 0: 0 FENGYUN 1C DEB

TLE line 1: 1 32241U 99025CWP 25123.78507360 .00005770 00000-0 21262-2 0 9990

TLE line 2: 2 32241 99.0916 144.3308 0151631 146.5138 214.5740 14.26752509906421

Live tracking on map

Real-time ground track for satellite FENGYUN 1C DEB.

In-orbit conjunctions

A list of the most updated potential collisions computed for object FENGYUN 1C DEB.

Target Orbit TCA Probability of collision Miss distance Type
COSMOS 972 LEO 2025-02-02 13:07:20 0.0001243244 590.0 (m) PAYLOAD

Associated space launch

Chinese polar orbiting meteorological satellite

FENGYUN 1C DEB was lifted into orbit during the mission ‘Long March 4B | Feng Yun 1C’, on board a Long March 4B space rocket.

The launch took place on May 10, 1999, 1:33 a.m. from Launch Complex 7.

For more information about the launch, click the button.

Launch to space Long March 4B | Feng Yun 1C
Long March 4B | Feng Yun 1C

Agency: N/A

Status: Launch Successful

Launch date: May 10, 1999, 1:33 a.m. UTC

Rocket: Long March 4B

Launch pad: Launch Complex 7

Location: Taiyuan Satellite Launch Center, People's Republic of China

...

Latest news about this satellite

There are no fresh news available about this satellite. Check back as we update our databases every day.


Newsletter sign-up

Weekly statistics, charts and insights to help you stay on top of the space industry.